Time,TemperatureF,DewpointF,PressureIn,WindDirection,WindDirectionDegrees,WindSpeedMPH,WindSpeedGustMPH,Humidity,HourlyPrecipIn,Conditions,Clouds,dailyrainin,SoftwareType,DateUTC
2013-03-07 00:02:00,41.0,35.0,29.90,NNE,19,4.0,10.0,80,0.00,,,0.05,,2013-03-07 05:02:00,
2013-03-07 00:12:00,41.0,35.0,29.90,NNE,19,4.0,10.0,80,0.00,,,0.05,,2013-03-07 05:12:00,
2013-03-07 00:22:00,41.0,35.0,29.91,NW,312,1.0,8.0,80,0.00,,,0.05,,2013-03-07 05:22:00,
2013-03-07 00:32:00,41.0,35.0,29.91,WNW,300,2.0,17.0,79,0.00,,,0.05,,2013-03-07 05:32:00,
2013-03-07 00:42:00,41.0,35.0,29.91,WNW,300,2.0,17.0,79,0.00,,,0.05,,2013-03-07 05:42:00,
2013-03-07 00:52:00,41.0,35.0,29.91,NW,312,3.0,14.0,79,0.00,,,0.05,,2013-03-07 05:52:00,
2013-03-07 01:01:00,41.0,35.0,29.92,NW,309,1.0,10.0,79,0.00,,,0.02,,2013-03-07 06:01:00,
2013-03-07 01:11:00,41.0,35.0,29.92,NW,309,1.0,10.0,79,0.00,,,0.02,,2013-03-07 06:11:00,
2013-03-07 01:21:00,40.0,34.0,29.92,NW,312,3.0,10.0,79,0.00,,,0.02,,2013-03-07 06:21:00,
2013-03-07 01:32:00,40.0,34.0,29.93,WNW,302,3.0,10.0,79,0.00,,,0.02,,2013-03-07 06:32:00,
2013-03-07 01:42:00,40.0,34.0,29.93,WNW,302,3.0,10.0,79,0.00,,,0.02,,2013-03-07 06:42:00,
2013-03-07 01:52:00,40.0,34.0,29.93,WNW,296,1.0,5.0,79,0.00,,,0.02,,2013-03-07 06:52:00,
2013-03-07 02:01:00,40.0,34.0,29.93,WNW,288,3.0,9.0,78,0.00,,,0.01,,2013-03-07 07:01:00,
2013-03-07 02:11:00,40.0,34.0,29.93,WNW,288,3.0,9.0,78,0.00,,,0.01,,2013-03-07 07:11:00,
2013-03-07 02:22:00,39.0,33.0,29.94,WNW,285,2.0,6.0,78,0.00,,,0.01,,2013-03-07 07:22:00,
2013-03-07 02:32:00,39.0,32.0,29.95,WNW,300,3.0,8.0,77,0.00,,,0.01,,2013-03-07 07:32:00,
2013-03-07 02:43:00,39.0,32.0,29.95,WNW,300,3.0,8.0,77,0.00,,,0.01,,2013-03-07 07:43:00,
2013-03-07 02:53:00,39.0,32.0,29.95,WNW,300,2.0,8.0,77,0.00,,,0.01,,2013-03-07 07:53:00,
2013-03-07 03:03:00,39.0,32.0,29.96,NNE,16,2.0,7.0,76,0.00,,,0.01,,2013-03-07 08:03:00,
2013-03-07 03:12:00,39.0,32.0,29.96,NNE,16,2.0,7.0,76,0.00,,,0.01,,2013-03-07 08:12:00,
2013-03-07 03:23:00,39.0,32.0,29.96,NNW,332,1.0,7.0,76,0.00,,,0.01,,2013-03-07 08:23:00,
2013-03-07 03:44:00,40.0,33.0,29.97,NW,309,0.0,6.0,76,0.00,,,0.01,,2013-03-07 08:44:00,
2013-03-07 03:54:00,40.0,33.0,29.98,West,266,1.0,8.0,75,0.00,,,0.01,,2013-03-07 08:54:00,
2013-03-07 04:03:00,40.0,33.0,29.98,WNW,294,1.0,7.0,75,0.00,,,0.01,,2013-03-07 09:03:00,
2013-03-07 04:13:00,40.0,33.0,29.98,WNW,294,1.0,7.0,75,0.00,,,0.01,,2013-03-07 09:13:00,
2013-03-07 04:23:00,40.0,33.0,29.99,West,273,1.0,8.0,75,0.00,,,0.01,,2013-03-07 09:23:00,
2013-03-07 04:33:00,39.0,32.0,29.99,West,266,2.0,6.0,76,0.00,,,0.01,,2013-03-07 09:33:00,
2013-03-07 04:43:00,39.0,32.0,29.99,West,266,2.0,6.0,76,0.00,,,0.01,,2013-03-07 09:43:00,
2013-03-07 04:53:00,39.0,32.0,30.00,WNW,283,0.0,4.0,76,0.00,,,0.01,,2013-03-07 09:53:00,
2013-03-07 05:03:00,39.0,32.0,30.01,North,11,1.0,4.0,76,0.00,,,0.01,,2013-03-07 10:03:00,
2013-03-07 05:13:00,39.0,32.0,30.01,North,11,1.0,4.0,76,0.00,,,0.01,,2013-03-07 10:13:00,
2013-03-07 05:33:00,38.0,31.0,30.01,NW,316,1.0,5.0,76,0.00,,,0.01,,2013-03-07 10:33:00,
2013-03-07 05:43:00,38.0,31.0,30.01,NW,316,1.0,5.0,76,0.00,,,0.01,,2013-03-07 10:43:00,
2013-03-07 05:53:00,38.0,31.0,30.01,NNE,20,1.0,4.0,77,0.00,,,0.01,,2013-03-07 10:53:00,
2013-03-07 06:03:00,38.0,31.0,30.02,West,271,1.0,6.0,77,0.00,,,0.01,,2013-03-07 11:03:00,
2013-03-07 06:12:00,38.0,31.0,30.02,West,271,1.0,6.0,77,0.00,,,0.01,,2013-03-07 11:12:00,
2013-03-07 06:23:00,37.0,31.0,30.03,WNW,283,0.0,4.0,78,0.00,,,0.01,,2013-03-07 11:23:00,
2013-03-07 06:33:00,37.0,31.0,30.03,WNW,293,0.0,3.0,78,0.00,,,0.01,,2013-03-07 11:33:00,
2013-03-07 06:43:00,37.0,31.0,30.03,WNW,293,0.0,3.0,78,0.00,,,0.01,,2013-03-07 11:43:00,
2013-03-07 06:54:00,37.0,31.0,30.04,West,271,2.0,4.0,79,0.00,,,0.01,,2013-03-07 11:54:00,
2013-03-07 07:03:00,38.0,31.0,30.06,West,280,0.0,5.0,77,0.00,,,0.01,,2013-03-07 12:03:00,
2013-03-07 07:12:00,38.0,31.0,30.06,West,280,0.0,5.0,77,0.00,,,0.01,,2013-03-07 12:12:00,
2013-03-07 07:23:00,39.0,32.0,30.06,West,269,0.0,4.0,75,0.00,,,0.01,,2013-03-07 12:23:00,
2013-03-07 07:33:00,40.0,32.0,30.08,WNW,288,1.0,4.0,74,0.00,,,0.01,,2013-03-07 12:33:00,
2013-03-07 07:53:00,40.0,32.0,30.09,NW,308,0.0,4.0,74,0.00,,,0.01,,2013-03-07 12:53:00,
2013-03-07 08:03:00,41.0,33.0,30.08,WNW,300,1.0,7.0,72,0.00,,,0.01,,2013-03-07 13:03:00,
2013-03-07 08:12:00,41.0,33.0,30.08,WNW,300,1.0,7.0,72,0.00,,,0.01,,2013-03-07 13:12:00,
2013-03-07 08:23:00,42.0,33.0,30.09,NW,318,2.0,8.0,70,0.00,,,0.01,,2013-03-07 13:23:00,
2013-03-07 08:32:00,43.0,33.0,30.10,North,11,3.0,7.0,68,0.00,,,0.01,,2013-03-07 13:32:00,
2013-03-07 08:42:00,43.0,33.0,30.10,North,11,3.0,7.0,68,0.00,,,0.01,,2013-03-07 13:42:00,
2013-03-07 08:53:00,44.0,34.0,30.10,West,273,2.0,7.0,67,0.00,,,0.01,,2013-03-07 13:53:00,
2013-03-07 09:02:00,44.0,33.0,30.11,WNW,283,2.0,13.0,64,0.00,,,0.01,,2013-03-07 14:02:00,
2013-03-07 09:12:00,44.0,33.0,30.11,WNW,283,2.0,13.0,64,0.00,,,0.01,,2013-03-07 14:12:00,
2013-03-07 09:23:00,45.0,33.0,30.11,NNW,332,2.0,8.0,62,0.00,,,0.01,,2013-03-07 14:23:00,
2013-03-07 09:33:00,46.0,32.0,30.11,West,277,4.0,11.0,58,0.00,,,0.01,,2013-03-07 14:33:00,
2013-03-07 09:42:00,46.0,32.0,30.11,West,277,4.0,11.0,58,0.00,,,0.01,,2013-03-07 14:42:00,
2013-03-07 09:54:00,46.0,32.0,30.11,WNW,287,4.0,13.0,57,0.00,,,0.01,,2013-03-07 14:54:00,
2013-03-07 10:03:00,47.0,33.0,30.11,SSW,205,4.0,10.0,58,0.00,,,0.01,,2013-03-07 15:03:00,
2013-03-07 10:12:00,47.0,33.0,30.11,SSW,205,4.0,10.0,58,0.00,,,0.01,,2013-03-07 15:12:00,
2013-03-07 10:32:00,48.0,33.0,30.11,ENE,59,3.0,12.0,56,0.00,,,0.01,,2013-03-07 15:32:00,
2013-03-07 10:42:00,48.0,33.0,30.11,ENE,59,3.0,12.0,56,0.00,,,0.01,,2013-03-07 15:42:00,
2013-03-07 10:53:00,49.0,34.0,30.11,NNW,340,2.0,9.0,55,0.00,,,0.01,,2013-03-07 15:53:00,
2013-03-07 11:02:00,49.0,33.0,30.11,NE,41,3.0,11.0,54,0.00,,,0.01,,2013-03-07 16:02:00,
2013-03-07 11:13:00,49.0,33.0,30.11,NE,41,3.0,11.0,54,0.00,,,0.01,,2013-03-07 16:13:00,
2013-03-07 11:24:00,50.0,34.0,30.10,WNW,302,3.0,9.0,53,0.00,,,0.01,,2013-03-07 16:24:00,
2013-03-07 11:33:00,50.0,34.0,30.10,NW,319,2.0,11.0,53,0.00,,,0.01,,2013-03-07 16:33:00,
2013-03-07 11:43:00,50.0,34.0,30.10,NW,319,2.0,11.0,53,0.00,,,0.01,,2013-03-07 16:43:00,
2013-03-07 11:53:00,51.0,33.0,30.09,NNW,330,2.0,10.0,50,0.00,,,0.01,,2013-03-07 16:53:00,
2013-03-07 12:02:00,51.0,33.0,30.09,NNE,18,6.0,10.0,50,0.00,,,0.01,,2013-03-07 17:02:00,
2013-03-07 12:12:00,51.0,33.0,30.09,NNE,18,6.0,10.0,50,0.00,,,0.01,,2013-03-07 17:12:00,
2013-03-07 12:23:00,51.0,31.0,30.09,North,8,3.0,10.0,47,0.00,,,0.01,,2013-03-07 17:23:00,
2013-03-07 12:33:00,51.0,34.0,30.09,WNW,287,2.0,11.0,51,0.00,,,0.01,,2013-03-07 17:33:00,
2013-03-07 12:43:00,51.0,34.0,30.09,WNW,287,2.0,11.0,51,0.00,,,0.01,,2013-03-07 17:43:00,
2013-03-07 12:54:00,53.0,33.0,30.08,WNW,294,3.0,12.0,46,0.00,,,0.01,,2013-03-07 17:54:00,
2013-03-07 13:04:00,53.0,33.0,30.08,North,352,1.0,9.0,47,0.00,,,0.01,,2013-03-07 18:04:00,
2013-03-07 13:22:00,53.0,34.0,30.07,WNW,299,2.0,6.0,49,0.00,,,0.01,,2013-03-07 18:22:00,
2013-03-07 13:32:00,53.0,33.0,30.06,WNW,297,4.0,14.0,46,0.00,,,0.01,,2013-03-07 18:32:00,
2013-03-07 13:42:00,53.0,33.0,30.06,WNW,297,4.0,14.0,46,0.00,,,0.01,,2013-03-07 18:42:00,
2013-03-07 13:53:00,52.0,32.0,30.06,WSW,252,4.0,10.0,46,0.00,,,0.01,,2013-03-07 18:53:00,
2013-03-07 14:03:00,53.0,33.0,30.06,WNW,288,1.0,9.0,46,0.00,,,0.01,,2013-03-07 19:03:00,
2013-03-07 14:12:00,53.0,33.0,30.06,WNW,288,1.0,9.0,46,0.00,,,0.01,,2013-03-07 19:12:00,
2013-03-07 14:23:00,53.0,32.0,30.05,West,269,4.0,11.0,45,0.00,,,0.01,,2013-03-07 19:23:00,
2013-03-07 14:35:00,53.0,33.0,30.05,West,276,3.0,9.0,47,0.00,,,0.01,,2013-03-07 19:35:00,
2013-03-07 14:43:00,53.0,33.0,30.05,West,276,3.0,9.0,47,0.00,,,0.01,,2013-03-07 19:43:00,
2013-03-07 14:53:00,54.0,34.0,30.06,NW,305,1.0,7.0,46,0.00,,,0.01,,2013-03-07 19:53:00,
2013-03-07 15:02:00,54.0,34.0,30.06,NW,305,1.0,7.0,46,0.00,,,0.01,,2013-03-07 20:02:00,
2013-03-07 15:13:00,54.0,34.0,30.06,NW,305,1.0,7.0,46,0.00,,,0.01,,2013-03-07 20:13:00,
2013-03-07 15:22:00,54.0,33.0,30.06,NW,316,2.0,8.0,45,0.00,,,0.01,,2013-03-07 20:22:00,
2013-03-07 15:33:00,54.0,34.0,30.06,NNE,27,2.0,7.0,46,0.00,,,0.01,,2013-03-07 20:33:00,
2013-03-07 15:43:00,54.0,34.0,30.06,NNE,27,2.0,7.0,46,0.00,,,0.01,,2013-03-07 20:43:00,
2013-03-07 15:54:00,54.0,34.0,30.06,NNW,335,2.0,8.0,47,0.00,,,0.01,,2013-03-07 20:54:00,
2013-03-07 16:03:00,53.0,34.0,30.07,West,271,1.0,8.0,48,0.00,,,0.01,,2013-03-07 21:03:00,
2013-03-07 16:12:00,53.0,34.0,30.07,West,271,1.0,8.0,48,0.00,,,0.01,,2013-03-07 21:12:00,
2013-03-07 16:23:00,53.0,34.0,30.07,West,271,1.0,8.0,48,0.00,,,0.01,,2013-03-07 21:23:00,
2013-03-07 16:33:00,52.0,34.0,30.08,WNW,287,2.0,7.0,50,0.00,,,0.01,,2013-03-07 21:33:00,
2013-03-07 16:43:00,52.0,34.0,30.08,WNW,287,2.0,7.0,50,0.00,,,0.01,,2013-03-07 21:43:00,
2013-03-07 16:53:00,51.0,34.0,30.09,NW,309,3.0,8.0,52,0.00,,,0.01,,2013-03-07 21:53:00,
2013-03-07 17:02:00,51.0,34.0,30.09,NW,309,3.0,8.0,52,0.00,,,0.01,,2013-03-07 22:02:00,
2013-03-07 17:12:00,51.0,34.0,30.09,NW,309,3.0,8.0,52,0.00,,,0.01,,2013-03-07 22:12:00,
2013-03-07 17:23:00,49.0,33.0,30.09,NW,323,1.0,9.0,53,0.00,,,0.01,,2013-03-07 22:23:00,
2013-03-07 17:32:00,49.0,33.0,30.10,SSW,212,0.0,10.0,54,0.00,,,0.01,,2013-03-07 22:32:00,
2013-03-07 17:43:00,49.0,33.0,30.10,SSW,212,0.0,10.0,54,0.00,,,0.01,,2013-03-07 22:43:00,
2013-03-07 17:54:00,49.0,34.0,30.11,North,356,0.0,6.0,55,0.00,,,0.01,,2013-03-07 22:54:00,
2013-03-07 18:03:00,49.0,33.0,30.12,NE,37,2.0,8.0,54,0.00,,,0.01,,2013-03-07 23:03:00,
2013-03-07 18:13:00,49.0,33.0,30.12,NE,37,2.0,8.0,54,0.00,,,0.01,,2013-03-07 23:13:00,
2013-03-07 18:22:00,48.0,33.0,30.12,NNW,342,0.0,6.0,55,0.00,,,0.01,,2013-03-07 23:22:00,
2013-03-07 18:34:00,48.0,34.0,30.13,WNW,289,1.0,6.0,57,0.00,,,0.01,,2013-03-07 23:34:00,
2013-03-07 18:43:00,48.0,34.0,30.13,WNW,289,1.0,6.0,57,0.00,,,0.01,,2013-03-07 23:43:00,
2013-03-07 18:54:00,48.0,34.0,30.14,WNW,302,0.0,5.0,57,0.00,,,0.01,,2013-03-07 23:54:00,
2013-03-07 19:04:00,47.0,33.0,30.15,NNW,327,0.0,2.0,58,0.00,,,0.01,,2013-03-08 00:04:00,
2013-03-07 19:13:00,47.0,33.0,30.15,NNW,327,0.0,2.0,58,0.00,,,0.01,,2013-03-08 00:13:00,
2013-03-07 19:23:00,47.0,33.0,30.15,WNW,295,1.0,7.0,58,0.00,,,0.01,,2013-03-08 00:23:00,
2013-03-07 19:34:00,47.0,32.0,30.16,WNW,297,2.0,7.0,56,0.00,,,0.01,,2013-03-08 00:34:00,
2013-03-07 19:44:00,47.0,32.0,30.16,WNW,297,2.0,7.0,56,0.00,,,0.01,,2013-03-08 00:44:00,
2013-03-07 19:54:00,47.0,33.0,30.16,NNW,328,1.0,4.0,57,0.00,,,0.01,,2013-03-08 00:54:00,
2013-03-07 20:02:00,47.0,33.0,30.16,NNE,19,1.0,3.0,57,0.00,,,0.01,,2013-03-08 01:02:00,
2013-03-07 20:11:00,47.0,33.0,30.16,NNE,19,1.0,3.0,57,0.00,,,0.01,,2013-03-08 01:11:00,
2013-03-07 20:22:00,46.0,32.0,30.16,NW,309,0.0,2.0,58,0.00,,,0.01,,2013-03-08 01:22:00,
2013-03-07 20:33:00,46.0,33.0,30.16,NW,312,0.0,1.0,60,0.00,,,0.01,,2013-03-08 01:33:00,
2013-03-07 20:42:00,46.0,33.0,30.16,NW,312,0.0,1.0,60,0.00,,,0.01,,2013-03-08 01:42:00,
2013-03-07 20:52:00,46.0,33.0,30.17,NNW,338,0.0,2.0,61,0.00,,,0.01,,2013-03-08 01:52:00,
2013-03-07 21:01:00,46.0,33.0,30.17,NW,314,0.0,4.0,61,0.00,,,0.00,,2013-03-08 02:01:00,
2013-03-07 21:12:00,45.0,33.0,30.18,NNW,339,0.0,2.0,62,0.00,,,0.00,,2013-03-08 02:12:00,
2013-03-07 21:22:00,45.0,33.0,30.18,NNW,339,0.0,2.0,62,0.00,,,0.00,,2013-03-08 02:22:00,
2013-03-07 21:32:00,45.0,32.0,30.18,North,9,1.0,6.0,61,0.00,,,0.00,,2013-03-08 02:32:00,
2013-03-07 21:42:00,45.0,32.0,30.18,North,9,1.0,6.0,61,0.00,,,0.00,,2013-03-08 02:42:00,
2013-03-07 22:02:00,44.0,32.0,30.18,NW,307,1.0,4.0,62,0.00,,,0.00,,2013-03-08 03:02:00,
2013-03-07 22:12:00,44.0,32.0,30.18,NW,307,1.0,4.0,62,0.00,,,0.00,,2013-03-08 03:12:00,
2013-03-07 22:22:00,43.0,32.0,30.18,WNW,285,0.0,1.0,64,0.00,,,0.00,,2013-03-08 03:22:00,
2013-03-07 22:32:00,42.0,31.0,30.18,NW,312,0.0,1.0,66,0.00,,,0.00,,2013-03-08 03:32:00,
2013-03-07 22:43:00,42.0,31.0,30.18,NW,312,0.0,1.0,66,0.00,,,0.00,,2013-03-08 03:43:00,
2013-03-07 22:53:00,41.0,31.0,30.18,NW,314,0.0,2.0,68,0.00,,,0.00,,2013-03-08 03:53:00,
2013-03-07 23:02:00,41.0,32.0,30.18,West,274,0.0,3.0,69,0.00,,,0.00,,2013-03-08 04:02:00,
2013-03-07 23:11:00,41.0,32.0,30.18,West,274,0.0,3.0,69,0.00,,,0.00,,2013-03-08 04:11:00,
2013-03-07 23:22:00,40.0,31.0,30.17,NW,307,0.0,1.0,71,0.00,,,0.00,,2013-03-08 04:22:00,
2013-03-07 23:32:00,40.0,31.0,30.17,NE,49,0.0,3.0,70,0.00,,,0.00,,2013-03-08 04:32:00,
2013-03-07 23:42:00,40.0,31.0,30.17,NE,49,0.0,3.0,70,0.00,,,0.00,,2013-03-08 04:42:00,
2013-03-07 23:52:00,40.0,31.0,30.17,WNW,302,0.0,2.0,69,0.00,,,0.00,,2013-03-08 04:52:00,